Regional Weather Roundup
Issued by NWS

Home | Current Version | Previous Version | Graphics & Text | Print | Product List | Glossary On
Versions: 1 2 3 4 5 6 7 8 9 10 11 12 13 14 15 16 17 18 19 20 21 22 23 24 25 26 27 28 29 30 31 32 33 34 35 36 37 38 39 40 41 42 43 44 45 46 47 48 49 50
000
ASUS43 KIND 280109
RWRIN

WEATHER ROUNDUP FOR INDIANA
NATIONAL WEATHER SERVICE INDIANAPOLIS IN
900 PM EDT TUE SEP 27 2016

NOTE: "FAIR" INDICATES FEW OR NO CLOUDS BELOW 12,000 FEET WITH NO
SIGNIFICANT WEATHER AND/OR OBSTRUCTIONS TO VISIBILITY.

* - STATION DOES NOT REPORT WEATHER SUCH AS PRECIPITATION OR FOG.

+ - STATION NOT QUALITY CONTROLLED BY THE NATIONAL WEATHER SERVICE.
    USE DATA WITH CAUTION...ESPECIALLY DEWPOINT AND RELATIVE
    HUMIDITY OBSERVATIONS.

INZ001>003-010>013-019-020-280200-
NORTHWEST INDIANA

CITY           SKY/WX    TMP DP  RH WIND       PRES   REMARKS
GARY /AIRPORT/ MOCLDY    55  45  67 SW6       29.78R
KNOX *+        PTCLDY    54  19  26 W3        29.78R
LA PORTE +     PTCLDY    53  44  70 CALM      29.79S
MICHIGAN CITY+ CLOUDY    61  37  41 MISG      29.78S
MONTICELLO +   CLEAR     60  30  32 SW5       29.79R
RENSSELAER +   PTCLDY    52  37  58 CALM      29.80R
VALPARAISO     PTCLDY    61  33  35 W3        29.79R

$$

LMZ046-743>745-280200-
SOUTHERN LAKE MICHIGAN

STATION/POSITION TIME  TEMP    WIND        PRES    WAVE
                       AIR SEA DIR/SP/G            HT
                 (UTC) (F)     (DEG/KT/KT) (MB)    (FT)
BURNS HARBOR     0003   67     290/ 15/ 22 1008.5R
MICHIGAN CITY    0000   67     250/ 21/ 22   N/A
5NW MICH CITY    0100   67 67  280/ 14/ 17   N/A     5

$$

INZ004-005-014>016-021>024-280200-
NORTH CENTRAL INDIANA

CITY           SKY/WX    TMP DP  RH WIND       PRES   REMARKS
ELKHART        CLEAR    N/A N/A N/A W6        29.78S
GOSHEN         CLOUDY    56  41  57 CALM      29.79R
LOGANSPORT +   PTCLDY    55  37  50 SW3       29.81R
PERU/GRISSOM   CLEAR     54  39  57 SW10      29.78R
ROCHESTER +    PTCLDY    59  41  51 CALM      29.80R
SOUTH BEND     MOCLDY    56  46  69 SW5       29.79R
WARSAW +       CLEAR     52  36  54 CALM      29.80R

$$

INZ006>009-017-018-025>027-280200-
NORTHEAST INDIANA

CITY           SKY/WX    TMP DP  RH WIND       PRES   REMARKS
ANGOLA *+        N/A     52  41  66 CALM      29.79R
AUBURN +       CLEAR     52  39  62 CALM      29.80R
FORT WAYNE     PTCLDY    55  39  54 SW6       29.80R
HUNTINGTON +   PTCLDY    56  44  64 CALM      29.79S
KENDALLVILLE + CLEAR     55  39  55 CALM      29.79R

$$

INZ028-029-035-036-043>045-051>053-280200-
WEST CENTRAL INDIANA

CITY           SKY/WX    TMP DP  RH WIND       PRES   REMARKS
CRAWFORDSVL +  CLEAR     51  47  89 S3        29.82S
GREENCASTLE +  CLEAR     59  52  77 CALM      29.84R
LAFAYETTE      CLEAR     57  43  59 CALM      29.80R
TERRE HAUTE    CLEAR     64  46  52 SW5       29.83R

$$

INZ030>032-037>040-046>048-054>057-064-065-280200-
CENTRAL INDIANA

CITY           SKY/WX    TMP DP  RH WIND       PRES   REMARKS
COLUMBUS       CLEAR     63  54  72 SW6       29.86R
FISHERS *+     CLEAR     55  52  88 CALM      29.83
FRANKFORT +    CLEAR     62  38  41 SW6       29.83S
GREENWOOD *+   CLEAR     63  48  59 SW6       29.84R
INDIANAPOLIS   PTCLDY    63  47  55 SW9       29.82S
-EAGLE CREEK   CLEAR     66  44  45 SW5       29.82R
MARION +       CLEAR     55  38  53 SW3       29.81R HAZE
MT COMFORT *+  CLEAR     63  46  55 S7        29.83S
SHELBYVILLE    CLEAR     64  50  60 S8        29.83S
ZIONSVILLE +   CLEAR     55  45  68 SW3       29.83R

$$

INZ033-034-041-042-049-050-058-059-280200-
EAST CENTRAL INDIANA

CITY           SKY/WX    TMP DP  RH WIND       PRES   REMARKS
MUNCIE         CLEAR     65  41  41 SW6       29.81S

$$

INZ060-061-067>069-081>083-085>088-280200-
SOUTHWEST INDIANA

CITY           SKY/WX    TMP DP  RH WIND       PRES   REMARKS
EVANSVILLE     CLEAR     66  50  56 CALM      29.88S
HUNTINGBURG *+   N/A     63  46  55 SW7       29.88S
WASHINGTON +   CLEAR     62  50  65 MISG      29.85S

$$

INZ062-063-066-070>080-084-089>092-280200-
SOUTH CENTRAL AND SOUTHEAST INDIANA

CITY           SKY/WX    TMP DP  RH WIND       PRES   REMARKS
BEDFORD +      CLEAR    N/A N/A N/A S3        29.86
BLOOMINGTON    CLEAR     57  52  83 CALM      29.85S
MADISON *+     CLEAR     59  46  63 S6        29.89S
SEYMOUR +      PTCLDY    63  50  63 CALM      29.86R

$$




USA.gov is the U.S. government's official web portal to all federal, state and local government web resources and services.